CW3999 Weather Reports


time (UTC)temp
C
wind
direction
speed
KPH
gust
KPH
rain 1hr
cm
rain 24hr
cm
rain mn
cm
humidity
%
barometer
mb
20260503213101 31 241 0.0 0.0 0.00 0.00 0.00 35 1007.1
20260503212601 31 241 0.0 0.0 0.00 0.00 0.00 36 1007.2
20260503212100 31 237 0.0 0.0 0.00 0.00 0.00 36 1007.2
20260503211602 31 236 0.0 0.0 0.00 0.00 0.00 35 1007.3
20260503211103 30 236 0.0 0.0 0.00 0.00 0.00 32 1007.4
20260503210604 30 236 0.0 0.0 0.00 0.00 0.00 36 1007.5
20260503210103 30 236 0.0 0.0 0.00 0.00 0.00 37 1007.6
20260503205601 30 236 0.0 0.0 0.00 0.00 0.00 33 1007.6
20260503205102 30 236 0.0 0.0 0.00 0.00 0.00 42 1007.7
20260503204601 30 236 0.0 0.0 0.00 0.00 0.00 39 1007.8
20260503204101 29 236 0.0 0.0 0.00 0.00 0.00 46 1007.8
20260503203602 29 236 0.0 0.0 0.00 0.00 0.00 43 1007.9
20260503202602 28 236 0.0 0.0 0.00 0.00 0.00 44 1008.1
20260503202101 28 236 0.0 0.0 0.00 0.00 0.00 44 1008.1
20260503201602 28 236 0.0 0.0 0.00 0.00 0.00 47 1008.2
20260503201107 28 236 0.0 0.0 0.00 0.00 0.00 45 1008.2
20260503200602 28 236 0.0 0.0 0.00 0.00 0.00 45 1008.3
20260503200104 28 236 0.0 0.0 0.00 0.00 0.00 45 1008.4
20260503195603 28 236 0.0 0.0 0.00 0.00 0.00 48 1008.5
20260503195103 27 236 0.0 0.0 0.00 0.00 0.00 45 1008.6
20260503194104 27 236 0.0 0.0 0.00 0.00 0.00 46 1008.6
20260503193101 27 236 0.0 0.0 0.00 0.00 0.00 46 1008.7
20260503192602 28 236 0.0 0.0 0.00 0.00 0.00 47 1008.8
20260503192103 28 236 0.0 0.0 0.00 0.00 0.00 48 1008.8
20260503191601 27 236 0.0 0.0 0.00 0.00 0.00 48 1008.9
20260503191102 27 236 0.0 0.0 0.00 0.00 0.00 47 1008.9
20260503190601 26 236 0.0 0.0 0.00 0.00 0.00 47 1009.0
20260503190103 26 236 0.0 0.0 0.00 0.00 0.00 46 1009.0
20260503185053 26 236 0.0 0.0 0.00 0.00 0.00 46 1009.1
20260503184555 26 236 0.0 0.0 0.00 0.00 0.00 47 1009.2
20260503184051 25 236 0.0 0.0 0.00 0.00 0.00 49 1009.3
20260503183539 25 236 0.0 0.0 0.00 0.00 0.00 47 1009.4
20260503183037 25 236 0.0 0.0 0.00 0.00 0.00 48 1009.5
20260503181532 24 235 0.0 0.0 0.00 0.00 0.00 50 1009.6
20260503181031 24 235 0.0 0.0 0.00 0.00 0.00 49 1009.6
20260503180531 23 235 0.0 0.0 0.00 0.00 0.00 49 1009.6
20260503180030 23 235 0.0 0.0 0.00 0.00 0.00 50 1009.7
20260503175031 23 235 0.0 0.0 0.00 0.00 0.00 51 1009.8
20260503174530 23 232 0.0 0.0 0.00 0.00 0.00 50 1009.8
20260503174030 23 225 0.0 0.0 0.00 0.00 0.00 51 1009.8
20260503173532 23 211 0.0 0.0 0.00 0.00 0.00 51 1009.9
20260503173018 23 211 0.0 0.0 0.00 0.00 0.00 51 1009.9
20260503172520 22 211 0.0 0.0 0.00 0.00 0.00 51 1009.9
20260503172001 22 212 0.0 0.0 0.00 0.00 0.00 48 1010.0
20260503171008 22 212 0.0 0.0 0.00 0.00 0.00 49 1010.0
20260503170504 21 212 0.0 0.0 0.00 0.00 0.00 48 1010.0
20260503150502 13 204 0.0 0.0 0.00 0.00 0.00 100 1010.5
20260503131001 9 204 0.0 0.0 0.00 0.00 0.00 100 1010.2
20260503130508 9 204 0.0 0.0 0.00 0.00 0.00 100 1010.2
20260503110502 10 204 0.0 0.0 0.00 0.00 0.00 100 1010.4
20260503090503 11 204 0.0 0.0 0.00 0.00 0.00 100 1010.7
20260503081502 12 204 0.0 0.0 0.00 0.00 0.00 100 1010.8
20260503081003 12 204 0.0 0.0 0.00 0.00 0.00 100 1010.7
20260503080504 12 204 0.0 0.0 0.00 0.00 0.00 100 1010.8
20260503072503 12 204 0.0 0.0 0.00 0.00 0.00 100 1010.8
20260503072001 13 204 0.0 0.0 0.00 0.00 0.00 100 1010.8
20260503071502 13 204 0.0 0.0 0.00 0.00 0.00 100 1010.8
20260503054503 15 204 0.0 0.0 0.00 0.00 0.00 100 1010.8
20260503053504 15 204 0.0 0.0 0.00 0.00 0.00 100 1010.9
20260503053002 15 204 0.0 0.0 0.00 0.00 0.00 100 1010.8
20260503052502 15 204 0.0 0.0 0.00 0.00 0.00 100 1010.7
20260503052002 15 204 0.0 0.0 0.00 0.00 0.00 100 1010.8
20260503051502 16 204 0.0 0.0 0.00 0.00 0.00 100 1011.0
20260503051002 16 204 0.0 0.0 0.00 0.00 0.00 100 1011.2
20260503050502 16 204 0.0 0.0 0.00 0.00 0.00 100 1011.0
20260503044946 16 204 0.0 0.0 0.00 0.00 0.00 100 1010.8
20260503044447 16 204 0.0 0.0 0.00 0.00 0.00 100 1010.7
20260503043931 16 204 0.0 0.0 0.00 0.00 0.00 100 1010.8
20260503043430 16 204 0.0 0.0 0.00 0.00 0.00 100 1010.8
20260503042430 16 204 0.0 0.0 0.00 0.00 0.00 100 1010.9
20260503041930 16 204 0.0 0.0 0.00 0.00 0.00 100 1011.0
20260503041429 16 204 0.0 0.0 0.00 0.00 0.00 100 1011.1
20260503040931 16 204 0.0 0.0 0.00 0.00 0.00 100 1011.0
20260503034934 17 204 0.0 0.0 0.00 0.00 0.00 100 1010.7
20260503033930 17 204 0.0 0.0 0.00 0.00 0.00 100 1010.6
20260503033430 17 204 0.0 0.0 0.00 0.00 0.00 100 1010.5
20260503032930 17 204 0.0 0.0 0.00 0.00 0.00 4 1010.5
20260503032431 17 204 0.0 0.0 0.00 0.00 0.00 8 1010.4
20260503031931 17 200 0.0 0.0 0.00 0.00 0.00 12 1010.5
20260503031430 17 200 0.0 0.0 0.00 0.00 0.00 13 1010.4
20260503030929 17 200 0.0 0.0 0.00 0.00 0.00 15 1010.5
20260503030429 17 200 0.0 0.0 0.00 0.00 0.00 16 1010.6
20260503025930 17 200 0.0 0.0 0.00 0.00 0.00 15 1010.3
20260503025431 18 200 0.0 0.0 0.00 0.00 0.00 16 1010.5
20260503024930 18 200 0.0 0.0 0.00 0.00 0.00 18 1010.5
20260503024430 18 200 0.0 0.0 0.00 0.00 0.00 20 1010.5
20260503023430 18 200 0.0 0.0 0.00 0.00 0.00 25 1010.5
20260503022922 18 200 0.0 0.0 0.00 0.00 0.00 26 1010.5
20260503022423 18 201 0.0 0.0 0.00 0.00 0.00 28 1010.5
20260503021922 19 196 0.0 0.0 0.00 0.00 0.00 31 1010.5
20260503021421 19 250 0.0 0.0 0.00 0.00 0.00 27 1010.5
20260503020921 20 336 0.0 0.0 0.00 0.00 0.00 28 1010.5
20260503020422 20 333 0.0 0.0 0.00 0.00 0.00 27 1010.2
20260503015921 20 333 0.0 0.0 0.00 0.00 0.00 29 1009.9
20260503014919 20 333 0.0 0.0 0.00 0.00 0.00 30 1009.8
20260503014414 20 333 0.0 0.0 0.00 0.00 0.00 32 1009.7
20260503013915 20 333 0.0 0.0 0.00 0.00 0.00 36 1009.7
20260503013415 20 333 0.0 0.0 0.00 0.00 0.00 36 1009.8
20260503012911 20 333 0.0 0.0 0.00 0.00 0.00 40 1009.8
20260503012401 20 333 0.0 0.0 0.00 0.00 0.00 43 1009.7
20260503011404 21 333 0.0 0.0 0.00 0.00 0.00 42 1009.7
20260503010904 21 333 0.0 0.0 0.00 0.00 0.00 47 1009.7
20260503010402 21 333 0.0 0.0 0.00 0.00 0.00 48 1009.7
20260503005404 21 333 0.0 0.0 0.00 0.00 0.00 51 1009.6
20260503004903 21 333 0.0 0.0 0.00 0.00 0.00 50 1009.6
20260503004404 21 333 0.0 0.0 0.00 0.00 0.00 50 1009.6
20260503003903 21 333 0.0 0.0 0.00 0.00 0.00 50 1009.6
20260503003404 21 333 0.0 0.0 0.00 0.00 0.00 48 1009.7
20260503002403 21 333 0.0 0.0 0.00 0.00 0.00 50 1009.6
20260503001903 21 333 0.0 0.0 0.00 0.00 0.00 52 1009.7
20260503001402 21 333 0.0 0.0 0.00 0.00 0.00 52 1009.7
20260503000903 21 333 0.0 0.0 0.00 0.00 0.00 52 1009.8
20260503000404 21 333 0.0 0.0 0.00 0.00 0.00 53 1009.8
20260502235902 21 333 0.0 0.0 0.00 0.00 0.00 52 1009.8
20260502235402 21 333 0.0 0.0 0.00 0.00 0.00 54 1009.9
20260502234402 21 333 0.0 0.0 0.00 0.00 0.00 54 1010.0
20260502233902 21 333 0.0 0.0 0.00 0.00 0.00 54 1010.0
20260502233402 22 333 0.0 0.0 0.00 0.00 0.00 54 1010.2
20260502232904 22 333 0.0 0.0 0.00 0.00 0.00 54 1010.2
20260502232402 22 333 0.0 0.0 0.00 0.00 0.00 54 1010.3
20260502231903 22 333 0.0 0.0 0.00 0.00 0.00 53 1010.4
20260502231404 22 333 0.0 0.0 0.00 0.00 0.00 54 1010.5
20260502230903 22 333 0.0 0.0 0.00 0.00 0.00 54 1010.5
20260502230403 22 333 0.0 0.0 0.00 0.00 0.00 54 1010.6
20260502225403 21 333 0.0 0.0 0.00 0.00 0.00 53 1010.8
20260502224903 21 333 0.0 0.0 0.00 0.00 0.00 53 1010.8
20260502224403 21 333 0.0 0.0 0.00 0.00 0.00 53 1010.8
20260502223902 21 333 0.0 0.0 0.00 0.00 0.00 52 1011.0
20260502222901 20 333 0.0 0.0 0.00 0.00 0.00 53 1011.2
20260502221902 20 333 0.0 0.0 0.00 0.00 0.00 51 1011.2
20260502221403 20 333 0.0 0.0 0.00 0.00 0.00 52 1011.4
20260502220902 20 333 0.0 0.0 0.00 0.00 0.00 53 1011.5
20260502220401 20 334 0.0 0.0 0.00 0.00 0.00 51 1011.5
20260502215904 19 334 0.0 0.0 0.00 0.00 0.00 53 1011.6
20260502215402 20 334 0.0 0.0 0.00 0.00 0.00 52 1011.7
20260502214903 19 334 0.0 0.0 0.00 0.00 0.00 50 1011.7
20260502214402 19 334 0.0 0.0 0.00 0.00 0.00 50 1011.7
20260502213903 19 334 0.0 0.0 0.00 0.00 0.00 38 1011.8
20260502213401 18 334 0.0 0.0 0.00 0.00 0.00 49 1011.9